CAPE
2091 2078 1481 2057 1951 1428 1083 888 500 0 500 0 0 4 112 435 708 53 34 44 265 159 52 104 35 46 70 97 55 233 836 170 21 98 59 1070 785 761 859 1065 1534 1648 1665 1616 1757 2239 2334 2169 2044 2016 1839 1902 1661 1843 1842 2000 2210 2136 2067 2226 2468 2166 2191 1908 1826 2366 2692 2930 2725 2650 2796 3045 3032 2858 2651 2661 2770 2837 3174 3252 3328 3302 3358 3444 3699 3618 3759 3932 4069 4118 4148 4123 4106 4100 4191 4166 4062
2319 1886 1600 1544 1416 1121 878 1030 0 0 0 0 0 71 0 34 457 185 132 34 71 47 34 158 22 475 497 492 550 702 632 943 952 954 593 857 1016 1061 1015 1383 1656 1756 1676 1666 1919 2143 2046 2371 2069 1962 1905 1582 2019 1872 2288 2047 2269 2205 1586 1814 2284 2401 2189 2122 2040 2238 2366 2637 2630 2652 2807 2924 2626 2822 2525 2478 2789 2760 2708 2861 2982 2929 3145 3230 3433 3596 3731 3810 3850 4129 4150 4177 4162 4168 4105 4063 3925
2114 1805 1629 1467 1325 882 901 872 144 0 0 0 0 0 110 109 149 333 330 211 440 216 205 288 392 574 475 435 537 572 361 868 722 730 1050 878 731 899 1234 1510 1668 1766 1812 1784 1925 1976 2089 2055 1929 2092 2011 1870 1808 1893 1935 2094 2320 2076 2326 2154 2092 2496 2309 2176 2224 2337 2103 2119 2394 2473 2533 2561 2569 2611 2480 2594 2149 2103 2166 2285 2552 2536 2989 3165 3345 3478 3621 3716 3808 3863 4001 4034 4080 3996 3947 3844 3813
1432 1412 1606 1364 1301 1066 117 0 0 0 0 0 0 0 221 325 296 449 375 641 1057 310 115 423 660 532 651 204 743 733 1007 1118 820 820 706 856 635 1179 1416 1643 1914 1916 1913 1870 1901 1899 2110 2062 2208 2329 2045 2088 1986 2103 1922 2071 2560 2733 2326 2540 2376 2451 2353 2067 2025 2081 2213 2384 2536 2474 2294 2371 2533 2550 2569 2434 1983 2110 1993 1546 2155 2341 2618 2857 3270 3302 3409 3581 3631 3736 3811 3927 3960 3880 3838 3721 3774
1604 2024 1684 1470 845 403 0 0 0 0 23 2 16 30 356 715 348 610 721 963 886 512 84 631 645 864 873 727 832 582 567 1001 798 770 872 1214 1141 1302 1525 1745 1844 1900 1888 1864 1906 1930 1966 2098 2117 2370 2365 2377 2385 2274 2122 2352 2521 2628 2692 2483 2441 2370 2368 2266 2173 2120 2050 2217 2248 2378 2572 2602 2682 2108 2286 1904 1966 1970 2005 1914 2322 2312 2444 2626 3140 3370 3404 3366 3501 3657 3700 3884 3946 3798 3801 3777 3816
1594 1548 1493 1253 948 398 0 0 0 77 40 440 65 62 412 834 504 784 927 953 789 603 190 253 641 733 663 1023 656 661 886 916 726 951 1133 1126 1247 1378 1702 1876 1808 1866 1916 1856 1848 1879 1902 1984 2117 2366 2505 2438 2601 2486 2442 2404 2539 2582 2623 2665 2372 2295 2416 2276 2204 2211 2510 2280 2028 1952 1806 1929 2114 2139 2174 2117 2104 2014 1954 2011 1988 2205 2464 2619 3106 3201 3259 3312 3383 3528 3716 3772 3678 3774 3831 3768 3667
1828 1476 1166 913 926 729 0 0 0 83 671 478 209 220 736 1126 701 659 482 490 454 508 145 395 460 469 537 636 854 1313 1149 1034 1023 1236 1314 1137 1308 1530 1643 1669 1798 1833 1882 1832 1837 1713 1583 1998 1968 1877 2229 2264 2346 2506 2359 2391 2485 2614 2715 2585 2513 2351 2464 2298 2381 2320 2476 2358 1857 2014 2226 2094 1986 2036 2136 2174 2053 2020 1976 2105 2192 2239 2309 2546 2981 2880 3135 3235 3388 3432 3492 3632 3697 3706 3761 3535 3600
1911 1518 1469 742 53 0 0 0 1 273 5 768 900 756 932 1006 599 482 498 382 238 479 611 589 588 879 792 760 759 980 1204 1290 1222 1196 1145 1196 1351 1501 1553 1659 1694 1795 1628 1623 1578 1550 1611 1840 1870 1898 2016 2270 2345 2410 2371 2404 2508 2632 2405 2594 2513 2620 2407 2271 2391 2515 2549 2304 1858 2067 2028 2082 2055 2195 2362 2277 2132 2186 2028 2223 2266 2477 2434 3019 2824 3159 3156 3249 3333 3470 3541 3590 3602 3662 3673 3512 3498
1752 1229 1483 273 0 0 154 258 73 413 637 995 679 1015 1296 617 448 412 342 459 600 294 668 526 516 339 748 760 835 1064 1107 1014 1183 1327 1118 1198 1307 1411 1510 1580 1586 1505 1562 1486 1191 1402 1459 2068 1852 2049 2146 2409 2387 2463 2558 2595 2725 2724 2445 2603 2596 2502 1978 2161 2508 2502 2093 2200 2241 2222 1995 2297 2311 2143 2291 2170 2378 2004 2080 2486 1978 2592 3005 3151 3158 3172 3164 3282 3300 3468 3532 3521 3515 3521 3555 3539 3539
1385 918 529 305 0 0 0 46 36 159 314 1272 1359 1161 741 559 594 432 383 493 462 302 700 640 583 223 856 691 786 979 1067 1071 1085 1056 1050 1088 1233 1353 1459 1567 1636 1446 1528 1188 1369 1510 1414 2008 2213 2263 2270 2064 2087 2467 2623 2457 2478 2612 2878 3339 3132 2722 2440 2202 2732 2796 2904 2359 2327 2352 2396 2259 2138 2316 2468 2494 2540 2354 2678 2723 2839 3121 3168 3195 3105 3179 3241 3276 3265 3360 3424 3461 3300 3359 3394 3366 3409
1653 1011 882 90 0 0 0 0 52 57 1002 1352 888 1338 828 824 591 390 400 422 544 515 744 648 638 674 726 701 831 1066 1093 1026 983 950 980 1003 1139 1279 1399 1577 1695 1386 1295 1402 1377 1415 1319 1595 1687 1838 1820 2168 1889 2430 2326 2503 2659 2947 3278 3232 3446 3130 2866 2744 2654 2675 3009 2973 2352 2408 2308 2287 2323 2589 2807 2857 2786 2597 2864 3291 3253 3132 3274 3224 3172 3147 3113 3111 3105 3190 3061 3200 3207 3245 3296 3397 3460
1353 767 684 202 15 4 0 0 0 3 5 722 1256 1222 994 907 564 657 529 475 406 648 696 507 626 671 726 744 759 1257 1006 944 936 882 846 907 1078 1183 1361 1586 1732 1528 1353 1169 1252 1383 1178 1387 1407 1466 1743 2022 2374 2578 2560 2713 2589 2576 2985 2810 3065 3132 3077 2812 2605 2857 2961 2699 2749 2692 2861 2461 2582 2507 2617 2834 3043 3083 3349 3300 3195 3313 3269 3158 3105 3056 3057 2855 2910 2866 3025 2785 2829 3039 3193 3345 3390
1376 910 538 140 1 37 0 10 0 318 50 109 926 1215 901 759 825 565 511 580 552 748 615 512 626 550 482 664 1006 1082 1072 933 850 765 749 906 1082 1133 1325 1516 1721 1622 1567 1266 1323 1257 1090 1155 1068 1220 1464 2351 2372 2574 2734 2734 2599 2533 2637 2704 2582 2763 3305 3039 2881 2648 2793 2730 2991 3021 2964 2787 2653 2820 2824 3050 3233 3401 3300 3314 3318 3295 3277 3185 3220 3099 3032 2948 2928 2956 2928 2881 2801 2888 3055 2948 3020
1373 892 558 223 3 1 9 5 0 8 2 138 711 972 1092 1296 1167 1242 678 614 679 778 666 633 492 579 694 774 932 979 1022 848 784 672 948 1143 1138 1142 1265 1453 1663 1656 1525 1330 1407 1249 1181 948 1007 1205 1578 2087 2387 2666 2644 2495 2445 2579 2626 2780 2644 2410 3026 3219 3239 3122 2915 3333 3519 3414 3422 3183 3173 3111 3236 3211 3370 3375 3325 3313 3321 3323 3201 3167 3155 3029 2927 2935 2772 3058 2798 3104 3104 3153 3336 3286 3323
1057 528 466 1 9 0 4 27 2 6 208 48 331 513 668 1145 1181 1315 1052 338 437 680 789 537 571 298 349 658 779 989 1010 823 706 1014 1250 1277 1278 1268 1250 1457 1627 1680 1575 1267 1245 1325 1208 1228 1237 1242 1373 1632 2058 2165 2275 2620 2636 2682 2753 2928 2796 2614 3010 3304 3557 3317 3441 3672 3568 3493 3376 3163 3172 3172 3193 3238 3341 3317 3318 3481 3326 3348 3310 3294 3295 3250 3224 3190 3048 3284 3359 3440 3402 3442 3513 3604 3564
1348 530 411 143 2 2 3 32 9 4 58 31 584 681 795 827 1367 1237 1267 773 410 824 694 776 524 250 325 424 431 924 912 829 1052 1289 1282 1342 1337 1291 1352 1440 1521 1568 1593 1371 1194 1563 1420 1346 1306 1221 1250 1433 1686 1891 1955 2248 2574 2820 2812 2820 2889 2917 3126 2992 3303 3332 3544 3638 3402 3487 3438 3391 3285 3270 3276 3182 3336 3408 3269 3169 3086 3233 3302 3179 3101 3266 3222 3137 3325 3504 3548 3608 3626 3600 3652 3680 3723
1257 760 566 349 143 18 7 62 9 131 220 100 415 733 915 920 1210 1494 1135 437 686 840 697 680 510 627 549 512 757 846 834 1132 1068 1170 1147 1143 1246 1148 1286 1333 1425 1440 1591 1565 1613 1797 1669 1607 1438 1280 1044 1195 1505 1621 1651 1958 2442 2986 2876 2978 3066 3271 3304 3347 3250 3296 3467 3427 3499 3455 3425 3655 3386 3363 3552 3426 3418 3630 3011 3182 2999 2859 3048 2980 3034 3278 3387 3365 3593 3536 3612 3518 3496 3485 3583 3656 3691
842 815 465 304 177 22 90 56 9 277 648 416 392 863 1150 769 760 946 737 548 654 738 703 689 676 541 530 636 830 842 799 998 1034 1046 1001 1086 1124 1041 1025 1153 1251 1358 1489 1581 1602 1691 1739 1676 1610 1496 1255 1187 1389 1682 1741 2060 2244 2781 2433 2718 2986 2936 3323 3268 3229 3094 3374 2984 3166 3349 3319 3797 3253 3208 3343 3560 3754 3469 3031 3367 3246 3375 3428 3543 3467 3432 3496 3564 3600 3616 3675 3674 3587 3559 3613 3538 3667
486 406 213 68 0 7 54 309 80 498 601 664 522 982 1280 647 511 765 1118 703 706 740 687 670 591 599 605 659 843 885 888 952 955 854 870 854 938 892 938 963 1080 1168 1377 1527 1558 1606 1704 1751 1688 1601 1509 1376 1461 1764 2016 2159 2214 2269 2395 2268 2699 2913 3236 3243 2838 3389 3037 2864 2980 3136 3544 3459 3293 3353 3495 3913 3702 3687 3327 3246 3218 3519 3520 3501 3552 3544 3542 3551 3658 3635 3633 3626 3684 3787 3841 3557 3427
388 193 145 28 0 205 362 433 492 535 718 705 866 1038 1056 830 803 1274 1065 642 669 706 641 670 623 614 660 632 812 899 886 885 814 761 841 761 855 838 865 929 906 990 1159 1369 1559 1584 1666 1761 1768 1770 1708 1669 1783 1974 2144 2213 2241 2337 2358 2380 2573 2610 2608 2477 2723 2795 2763 2807 2879 3089 3352 3413 3358 3308 3920 3846 3567 3440 3428 4412 3245 3102 3321 3547 3664 3486 3969 3618 3794 3655 3574 3785 3808 4008 3646 3628 3596
50 51 8 101 0 164 418 646 642 738 787 788 741 1336 959 655 1022 1028 731 698 682 662 658 668 671 629 678 652 765 882 848 843 817 749 723 782 834 897 888 854 804 914 1004 1310 1629 1516 1568 1714 1855 1937 1941 1938 2028 2096 2220 2284 2192 2395 2420 2252 2375 2454 2581 2459 2745 2685 2797 2850 2826 3139 3355 3477 3314 3314 3354 3502 3312 3223 3092 3019 3045 3223 3116 2948 3934 3342 3212 3186 3534 3388 3426 3434 3340 3322 3229 3172 3226
33 73 11 13 22 140 374 490 637 954 947 840 974 919 881 1112 843 655 632 612 638 692 683 674 657 650 698 716 797 886 888 832 826 798 712 691 788 779 806 756 717 831 1044 1137 1330 1515 1490 1624 1752 1864 1936 2006 2047 2047 2155 2306 2145 2388 2468 2316 2458 2543 2632 2586 2692 2680 2695 2736 2838 3008 3182 3104 3090 3133 3218 3143 3237 3176 3096 2994 2886 2801 3034 3037 3026 2937 2955 3021 3073 3146 3150 3071 2919 2522 2516 2571 2575
123 2 60 71 88 366 767 976 1250 1108 947 839 1038 1147 1049 744 727 776 638 639 719 596 705 712 644 678 721 747 793 899 913 876 798 791 741 650 787 792 728 714 714 805 892 991 1178 1260 1347 1518 1662 1743 1803 1859 1922 2028 2064 2243 2166 2360 2492 2500 2641 2671 2587 2583 2617 2546 2528 2570 2787 2998 2756 2872 2755 2603 2510 2453 2550 2901 3007 2977 2850 2675 2443 2404 2762 2992 2928 2856 2797 2728 2644 2538 2432 2244 2282 2418 2350
15 16 275 259 544 825 1072 1129 1183 1108 1016 926 1160 1088 980 584 603 878 625 845 1057 1049 766 668 654 665 714 775 794 839 877 864 905 825 788 703 850 846 712 673 693 776 882 912 1028 1105 1370 1469 1570 1603 1690 1790 1850 1928 1976 2108 2230 2331 2431 2666 2724 2702 2600 2522 2460 2497 2503 2555 2729 2918 3279 2682 2793 2764 2697 2588 2448 2291 2458 2719 2645 2440 2444 2313 2114 2240 2438 2426 2334 2272 2296 2228 2263 2247 2210 2279 2283
89 55 90 312 621 938 1167 1035 1113 1113 984 1140 1112 1022 924 938 925 948 863 1134 1923 755 755 751 683 701 713 733 802 832 911 947 982 891 831 782 816 847 735 623 665 779 851 881 972 1022 1203 1486 1529 1544 1622 1720 1827 1837 1906 2047 2190 2367 2434 2567 2639 2747 2615 2497 2404 2390 2437 2527 2772 2797 3598 2731 2712 2753 2733 2680 2616 2406 2201 2296 2248 2191 2192 2165 2090 1948 2024 2088 2031 1968 2069 2079 2140 2141 2157 2074 2006
27 37 312 553 1001 1060 984 972 976 865 927 1075 959 1141 1187 1155 1013 937 928 1351 1284 782 821 746 690 714 720 728 777 835 887 960 1014 1008 1006 928 864 959 813 667 672 755 829 866 916 959 1088 1336 1452 1486 1596 1635 1726 1756 1767 1943 2116 2318 2431 2482 2537 2742 2632 2529 2381 2352 2498 2604 2724 2839 3224 2994 2805 2734 2703 2696 2615 2507 2403 2268 2107 2079 2122 2113 2051 1918 1834 1886 1941 1781 1691 1776 1872 1858 1926 1844 2314
209 454 481 873 1075 1033 1039 922 1020 849 858 1093 1055 1120 1143 1061 745 899 1149 1201 941 863 833 739 750 749 753 751 780 801 851 914 973 986 1012 996 985 969 873 744 722 760 870 855 913 945 1115 1255 1386 1475 1486 1595 1615 1623 1669 1860 1940 2042 2283 2367 2371 2428 2493 2364 2300 2310 2435 2613 2719 2887 2900 3431 2974 2839 2762 2742 2738 2700 2519 2243 2068 1972 1889 1853 1853 1807 1760 1710 1733 1762 1621 1576 1572 1608 1690 1690 1772
616 943 1120 1313 1343 1208 1110 1011 947 839 838 1025 1060 1076 1016 1077 622 719 1178 1423 920 917 843 793 843 827 824 806 813 797 850 877 912 911 1005 1022 1056 998 936 815 752 756 819 842 897 990 1108 1195 1331 1467 1405 1537 1518 1556 1616 1745 1885 1814 1838 1931 1930 1946 2186 2191 2188 2234 2457 2540 2639 2734 2876 2913 3544 2862 2724 2627 2563 2532 2412 2219 2093 1976 1887 1769 1609 1506 1474 1520 1692 1653 1675 1739 1771 1719 1710 1724 1715
722 642 469 1250 1400 1382 1191 1109 993 809 804 1112 983 867 776 818 756 530 1142 1431 929 942 942 916 922 896 907 890 898 842 849 865 905 908 942 998 1039 1019 964 865 791 766 786 808 872 1083 1137 1207 1238 1394 1389 1438 1444 1479 1512 1581 1779 1831 1811 1824 1827 1849 2005 2163 2155 2160 2275 2479 2566 2576 2623 2782 3254 3119 2839 2662 2872 2432 2278 2073 2031 1970 1861 1698 1508 1365 1382 1401 1389 1523 1725 1936 1809 1649 1624 1558 1448
681 665 688 561 1173 934 1099 1138 1137 1031 709 1143 872 636 316 623 576 615 1412 1195 914 950 968 959 973 946 960 947 958 910 860 855 890 902 909 946 968 1032 988 914 817 741 758 770 854 1008 1182 1255 1333 1283 1340 1321 1430 1394 1360 1399 1527 1708 1789 1843 1832 1858 1918 2098 2168 2130 2204 2224 2384 2484 2504 2563 3140 2890 2898 2838 2748 2624 2443 2246 2092 1901 1734 1488 1318 1258 1216 1277 1283 1290 1406 1608 2086 2254 1488 1365 1356
583 444 501 486 368 205 881 1324 1128 1027 1020 1180 640 376 272 190 496 955 1488 1026 894 930 945 962 945 962 958 960 958 942 902 884 868 894 887 918 941 992 995 966 854 742 833 746 892 961 1258 1215 1335 1274 1423 1196 1676 1392 1423 1255 1253 1390 1572 1679 1745 1764 1844 1949 2059 2090 2098 2121 2150 2236 2299 2316 2812 2754 2784 2766 2671 2477 2268 2078 1612 1490 1349 1618 1631 1459 1151 1016 1114 1172 1383 1421 1233 1514 1545 1380 1442
598 88 199 310 257 135 896 1441 1264 984 1026 1228 772 335 217 172 376 985 1640 1054 820 920 894 901 902 886 866 881 901 887 894 862 867 882 897 926 941 946 987 989 890 766 700 706 865 988 1111 1166 1545 1244 1357 1071 1328 1475 1382 1294 1182 1129 1289 1633 1583 1673 1774 1868 1936 2039 2090 2112 2095 2092 2143 2213 2448 2368 2471 2469 2426 2281 2075 1981 1556 1444 1798 1945 1832 1718 1276 970 906 860 1131 1160 1080 1052 1451 1460 1760
348 100 12 56 30 85 294 1097 1364 1155 1129 1163 600 297 487 278 590 683 1609 1394 779 858 888 866 849 814 762 761 761 752 757 788 803 865 878 906 904 898 933 971 896 788 691 659 836 1006 1081 1120 1655 1273 1297 1031 1063 1422 1416 1396 1306 1102 1081 1358 1461 1608 1696 1789 1891 1958 2050 2072 2049 2093 2140 2215 2466 2291 2294 2283 2224 2094 2044 2078 1882 1964 2056 2159 1743 1714 1583 1248 927 903 891 1365 965 1065 1440 1779 1924
0 80 215 65 62 8 3 1142 1380 1296 975 944 898 568 460 591 1285 1322 1645 1417 959 742 814 874 857 820 799 763 685 668 644 665 707 749 809 836 848 820 843 925 852 776 703 657 788 989 1062 1116 1423 1303 1317 1131 950 1192 1383 1390 1388 1321 1111 1126 1648 1518 1616 1668 1735 1820 1907 1973 2007 2049 2106 2156 2485 2316 2313 2239 2158 2090 2128 2059 1972 1939 2387 2189 1741 1142 1154 1343 840 1295 1395 1353 1090 1385 1744 1952 1890
0 0 0 0 0 22 6 116 718 1353 1227 913 809 681 565 520 690 1560 1530 1480 999 828 724 777 846 815 818 816 782 682 635 608 610 622 659 687 710 728 787 782 738 721 716 706 756 940 1012 1124 1344 1483 1402 1303 1037 1058 1283 1342 1354 1382 1425 1195 1256 1432 1503 1550 1583 1656 1750 1833 1892 1942 1990 2102 2584 2224 2063 2030 2110 2216 2455 2110 2162 2221 2371 2235 1711 1413 899 1657 1846 1181 1539 1693 1964 1728 1947 2018 2028
0 0 0 0 0 0 6 95 593 1283 1119 1053 786 664 581 512 494 1179 1647 1554 1076 763 765 708 780 812 825 861 838 785 718 679 647 610 597 585 529 672 737 755 678 672 705 740 812 902 959 1082 1260 1337 1376 1315 1245 1041 1213 1279 1313 1394 1472 1382 1209 1354 1459 1478 1494 1528 1531 1602 1710 1806 1861 2024 2117 2663 2124 1966 1947 2288 2078 2104 2141 2316 2393 2157 1844 1393 1090 1073 1525 1779 1386 1838 2378 2423 2477 2500 2505
0 0 0 0 0 0 4 263 725 1204 1040 949 792 654 495 469 442 603 1490 1588 1405 868 649 659 684 727 764 829 860 846 800 778 742 700 612 583 541 603 691 704 676 644 681 753 765 872 923 1019 1215 1292 1318 1279 1237 1047 1191 1246 1321 1404 1472 1376 1159 1252 1364 1414 1433 1430 1402 1508 1565 1716 1852 1953 1834 2193 2720 2125 1969 2229 2429 1920 2022 2100 2013 2767 2106 1753 1248 906 1080 1334 2160 4342 2281 2082 1923 1918 2194
0 0 0 0 0 0 0 0 823 1133 958 803 755 724 654 573 468 458 1187 1524 1516 1161 676 564 682 727 751 720 727 745 763 1263 924 657 658 615 585 574 682 691 749 697 704 751 766 821 881 975 1166 1254 1296 1228 1157 1039 1154 1244 1315 1395 1452 1409 1218 1169 1295 1496 1385 1382 1443 1502 1543 1700 1842 1867 1795 1936 2744 2327 2153 1919 1880 2177 2178 2105 1832 1786 2668 3008 1997 3064 4020 2422 2749 2352 2632 2053 1851 2026 2658
0 0 0 0 0 0 19 662 1075 1127 813 867 686 666 615 607 587 513 1220 1388 1482 1378 902 580 770 782 813 784 678 688 1157 1327 1028 632 546 583 636 632 709 734 714 730 765 766 763 778 804 912 1124 1227 1303 1258 1188 1032 1096 1208 1306 1405 1436 1456 1330 1201 1251 1340 1359 1353 1395 1443 1454 1550 1596 1514 1696 1817 2005 2685 2213 2000 1782 1710 1854 1837 1829 2545 2544 2103 3590 3484 2620 2402 2311 2238 2161 1983 2538 2565 2355
0 0 0 0 0 0 0 904 1139 1159 956 624 631 662 632 581 539 511 952 1256 1374 1405 1237 848 806 720 771 824 983 1100 1247 1330 1063 684 543 536 582 652 705 775 806 788 829 807 790 801 768 898 1067 1207 1311 1305 1265 1116 1372 1125 1216 1345 1404 1434 1411 1259 1309 1365 1428 1350 1334 1360 1379 1411 1376 1302 1338 1639 1804 1960 2465 2043 1834 1693 1644 1687 1785 2144 2044 1910 1869 2264 2223 2258 2189 2170 1920 1811 1566 1766 2755
0 0 0 0 0 0 0 49 1148 1140 1033 677 631 487 372 318 421 410 517 1153 1274 1366 1326 1034 966 708 728 932 1160 1211 1233 1255 1108 813 465 476 528 636 703 769 817 874 904 896 884 865 846 820 963 1195 1319 1307 1267 1444 1492 1181 1337 1290 1322 1350 1330 1280 1412 1344 1345 1272 1222 1392 1361 1358 1372 1216 1246 1415 1584 1804 2356 2194 1926 1805 1724 1754 1791 1794 2161 1835 1681 1696 1798 1973 1985 2106 1978 1679 1684 1661 1891
0 0 0 0 0 0 76 834 945 852 1031 983 682 63 158 0 189 306 488 948 1278 1253 1320 1224 1170 989 734 844 1053 1278 1335 1257 1202 890 587 464 521 602 655 701 784 857 934 973 964 934 932 879 883 1112 1341 1316 1276 1240 1374 1256 1519 1266 1287 1287 1237 1217 1275 1250 1185 1149 1130 1144 1270 1235 1232 1301 1411 1500 1555 1701 1951 2517 2027 1888 1809 1805 1844 1810 2119 1889 1778 1618 1707 1909 1946 1856 1918 1841 1892 1798 1880
0 0 0 0 0 0 269 853 447 540 327 451 695 291 162 150 79 134 266 604 927 1094 1210 1216 1171 1118 910 711 824 1058 1286 1284 1359 1124 683 462 290 540 596 655 757 824 906 986 1020 995 973 937 873 1013 1254 1317 1300 1252 1342 1420 1285 1295 1306 1272 1232 1204 1190 1187 1138 1100 1028 1039 1089 1142 1154 1272 1480 1560 1709 1692 1813 2279 2335 1956 1856 1823 1801 1765 2303 1972 1822 1808 1808 1867 2002 1742 1794 2402 1831 1897 1801
0 0 0 0 0 0 178 578 143 390 395 406 600 423 170 237 301 0 11 342 467 729 1022 1096 1100 1098 1005 860 748 849 1064 1310 1385 1328 891 612 327 338 471 608 711 789 845 941 1014 1011 1027 993 935 975 1130 1301 1298 1292 1291 1347 1338 1338 1331 1270 1210 1182 1129 1081 1033 1068 1094 1191 1052 1118 1106 1271 1569 1593 1651 1714 1767 1930 2439 2049 1903 1820 1763 1732 1844 2182 1987 1870 1892 2024 2756 1954 1978 2154 1930 1886 1880
0 0 0 0 0 1 330 467 352 302 333 382 551 602 538 515 333 41 178 248 296 350 500 776 905 1027 1106 1045 926 842 1020 1353 1394 1432 1185 771 673 376 379 378 648 722 776 860 952 992 1015 1017 1069 1036 1036 1167 1278 1308 1302 1362 1366 1360 1301 1226 1172 1133 1110 1052 1084 1489 1382 1511 1140 1112 1117 1133 1567 1727 1676 1708 1735 1765 2530 2358 1899 1803 1728 1656 2451 2044 2033 2033 1964 2048 1994 1978 2097 2101 2144 1960 1764
0 0 0 0 0 458 470 384 380 333 26 38 443 471 346 271 164 196 347 123 94 115 49 314 598 777 939 1117 1134 1082 1061 1346 1399 1478 1369 1210 862 733 459 478 473 626 721 797 875 960 967 990 1083 1103 1106 1104 1185 1282 1374 1342 1368 1325 1236 1167 1098 1099 1109 1061 1073 1156 1341 1202 1187 1157 1171 1169 1458 1784 1831 1744 1723 1713 1874 2412 2174 1828 1722 1702 2091 1823 1818 1950 1945 1889 1891 1803 1774 1835 1978 2760 2348
0 0 0 0 175 388 439 483 400 351 53 6 71 481 256 39 0 29 122 114 53 19 26 18 65 458 659 755 1036 1233 1206 1255 1379 1458 1431 1437 1637 1183 889 671 580 547 520 610 803 879 890 938 1007 1002 1047 1140 1216 1252 1300 1320 1312 1255 1159 1091 1054 1034 1054 1073 1100 1142 1215 1196 1176 1116 1101 1103 1419 1728 1792 1932 1802 1784 1785 1909 2164 1935 1831 2169 2424 1751 1582 1586 1623 1669 1643 1568 1874 1812 1728 1911 2482
0 0 0 0 0 0 0 0 275 235 25 0 0 375 408 133 45 0 0 211 3 14 23 28 20 52 296 518 616 1019 1294 1255 1348 1357 1464 1501 1472 1264 1244 827 745 684 610 553 518 790 856 907 967 926 750 1038 1130 1200 1236 1262 1250 1194 1129 1062 1034 1012 1013 1050 1079 1122 1102 1158 1156 1111 1056 1026 1183 1576 1636 1767 1906 1931 1925 1942 2077 2022 2035 1866 1847 1780 1655 1495 1367 1262 1242 1246 1297 1344 1477 2124 1831
0 0 0 0 0 0 8 3 85 153 6 0 0 354 499 363 24 0 0 0 0 0 2 11 15 19 44 150 453 635 1088 1318 1268 1307 1200 1274 1194 1149 1324 1187 905 819 770 702 662 621 766 782 843 951 1017 1146 1227 1277 1275 1286 1248 1195 1162 1112 1046 1013 995 1030 1065 1035 1066 1046 1069 1050 1022 994 1026 1286 1637 1742 1690 1812 1898 1915 1893 1853 1825 1781 1782 1600 1516 1451 1349 1214 1083 982 1017 1061 1141 1270 1360
0 0 0 0 0 0 0 0 0 0 0 0 0 324 126 37 231 149 134 93 0 0 0 0 2 14 19 70 293 508 696 1068 1294 1344 1263 1091 963 900 1199 1409 1223 1076 1043 949 907 920 902 1005 1100 1154 1147 1196 1454 1504 1463 1408 1413 1421 1303 1147 1050 1214 1034 1043 1048 1034 1083 1042 1009 1008 928 954 1054 1192 1372 1716 1853 1745 1622 1597 1604 1567 1547 1532 1578 1475 1360 1274 1174 1128 1084 1002 847 792 772 882 1087
0 0 0 0 0 0 0 0 0 0 0 0 76 63 272 115 34 0 561 992 1129 421 0 0 8 0 5 37 276 523 600 700 926 1152 1288 1222 1052 816 958 1316 1479 1430 1347 1278 1198 1153 1227 1349 1324 1313 1228 1198 1548 1668 1700 1657 1600 1611 1584 1344 1228 1159 1191 1022 887 914 1063 1094 1103 1096 1055 1092 1096 1125 1312 1542 1825 1875 1798 1664 1613 1543 1480 1429 1369 1427 1609 1396 1282 1256 1110 926 850 790 703 893 954
0 0 0 0 0 0 0 0 0 0 3 14 174 32 0 0 0 31 362 1111 1000 4 0 38 60 67 93 126 332 568 671 667 676 766 900 992 1022 933 974 1132 1342 1488 1542 1477 1448 1419 1473 1489 1430 1381 1239 1127 1466 1798 1795 1858 1845 1814 1751 1673 1507 1246 1100 1104 1061 1089 1068 1054 1160 1181 1277 1416 1480 1458 1370 1578 1695 1938 1899 1813 1821 1788 1739 1663 1560 1456 1380 1336 1268 1093 1036 1091 964 953 797 744 847
0 0 0 0 0 0 0 81 0 0 0 0 0 0 0 0 0 124 963 995 1009 388 0 102 162 193 144 196 288 540 725 774 761 702 644 676 867 1028 1085 1147 1236 1329 1389 1461 1501 1532 1543 1531 1488 1415 1281 1221 1242 1738 1778 1876 1920 1905 1884 1803 1758 1539 1326 1219 1234 1276 1237 1253 1348 1461 1591 1643 1693 1567 1452 1689 1690 1727 1815 1748 1710 1616 1571 1550 1519 1463 1402 1292 1128 1197 1199 1027 956 871 1026 868 799
0 0 0 0 0 0 0 0 0 0 0 0 0 0 0 0 3 282 563 744 747 1248 587 288 326 347 396 288 384 515 728 861 909 871 827 865 1033 1194 1166 1182 1267 1340 1463 1537 1528 1532 1568 1554 1627 1745 1684 1357 1382 1509 1741 1803 1921 1920 1933 1934 1893 1822 1554 1360 1409 1428 1430 1548 1639 1722 1742 1751 1681 1457 1571 1645 1729 1684 1683 2071 1820 1615 1540 1563 1650 1689 1606 1403 1151 1071 970 1025 932 875 799 779 826
0 0 0 0 0 0 0 0 0 0 0 0 0 0 0 0 1 0 75 275 238 1167 1335 751 723 587 519 537 563 618 792 931 1016 1038 1043 1059 1139 1235 1288 1291 1301 1386 1593 1612 1643 1610 1576 1506 1464 1834 1903 1781 1674 1646 1743 1863 1891 1949 1898 1922 1929 1933 1842 1729 1632 1572 1539 1709 1691 1706 1673 1616 1510 1436 1648 1724 1711 1689 1709 1621 1730 1723 1635 1692 1706 1701 1638 1492 1215 1143 1046 994 952 886 868 839 870
0 0 0 0 0 0 0 0 0 0 0 0 0 0 17 0 0 2 16 56 53 1142 1386 1046 833 802 707 737 798 854 955 1025 1083 1120 1150 1198 1260 1317 1398 1450 1464 1500 1537 1601 1662 1692 1678 1539 1693 1899 1993 1978 1924 1917 2029 1942 1934 1981 1974 1900 1891 1903 1900 1789 1658 1476 1610 1771 1693 1693 1637 1586 1571 1557 1471 1416 1508 1651 1719 1679 1541 1569 1627 1652 1648 1604 1523 1491 1339 1079 1081 1121 1119 1015 980 996 980
0 0 0 0 0 0 0 0 0 0 0 0 0 0 0 0 0 2 23 0 44 925 1138 1224 1092 1075 979 944 995 1025 1061 1112 1157 1193 1229 1271 1430 1434 1435 1494 1574 1627 1630 1655 1642 1721 1739 1714 1821 2026 2022 2024 2055 2059 2047 2031 1977 1911 1939 1910 1886 1907 1913 1817 1857 1518 1508 1614 1740 1669 1594 1527 1500 1450 1538 1537 1669 1764 1782 1742 1625 1656 1615 1599 1516 1416 1370 1424 1348 1091 1034 1068 1126 1090 1053 1030 1083
0 0 0 0 0 0 0 0 0 0 0 0 0 0 0 0 0 0 0 0 109 876 1190 1343 1328 1317 1300 1176 1191 1183 1207 1212 1249 1290 1317 1361 1543 1659 1585 1592 1532 1566 1614 1627 1680 1734 1784 1849 1964 2093 2017 2017 2062 2079 2096 2037 1962 2011 1987 1786 1812 1744 1770 1636 1676 1620 1608 1641 1666 1479 1602 1748 1694 1784 1844 1780 1773 1766 1777 1774 1753 1668 1577 1424 1337 1417 1432 1390 1243 1071 965 971 1005 1100 1120 1135 1150
Wind_Speed
0 2 2 2 1 3 3 5 1 nan 2 nan nan nan 3 4 5 nan nan nan 1 1 nan 6 nan nan nan nan nan 3 4 4 nan nan nan 5 5 7 8 9 10 10 9 8 8 8 8 12 21 28 26 24 16 12 11 13 17 17 11 6 14 19 19 12 7 6 8 8 6 8 6 5 7 5 6 5 7 9 10 5 7 8 6 5 5 5 5 5 5 6 6 7 7 8 9 8 8
2 3 3 3 1 2 2 1 nan nan nan nan nan nan nan nan 4 6 6 nan nan nan nan 3 nan 0 4 5 7 6 4 6 2 3 4 4 9 8 6 8 9 10 9 9 9 10 11 12 19 23 28 28 26 21 16 15 20 22 18 12 9 17 19 13 7 7 7 7 6 5 4 5 5 5 5 4 5 7 9 9 6 3 5 3 4 5 5 5 5 5 6 6 7 8 8 8 8
4 5 4 4 3 3 2 3 2 nan nan nan nan nan 3 3 3 6 5 5 5 5 5 4 3 1 3 2 1 2 2 2 3 1 5 7 8 4 7 8 10 11 10 9 11 12 12 14 16 18 22 28 28 25 21 18 17 23 25 19 14 17 19 12 8 8 8 6 5 4 3 4 4 5 5 4 4 4 5 5 7 3 3 5 6 6 7 6 5 5 6 7 7 8 8 8 8
6 4 5 4 2 3 2 nan nan nan nan nan nan nan 3 2 4 5 7 6 5 5 5 3 3 5 4 3 3 2 1 3 2 4 4 4 5 7 8 10 12 11 10 9 12 12 12 14 15 14 18 20 26 27 24 20 21 22 24 22 19 21 21 13 5 6 9 6 3 3 2 2 3 4 5 3 3 1 1 2 3 3 8 10 10 8 8 7 6 6 7 7 8 9 9 9 9
5 4 5 6 6 3 nan nan nan nan nan nan nan nan 4 2 5 6 6 5 4 6 nan 6 4 2 5 4 3 3 3 3 4 2 4 5 9 8 10 12 12 11 9 10 12 13 12 15 14 13 15 17 21 23 24 24 23 22 23 23 21 22 22 16 6 3 5 5 5 3 2 2 2 3 5 5 4 5 7 7 2 3 12 16 12 10 9 8 7 7 8 8 9 10 9 9 9
7 6 7 8 6 2 nan nan nan nan nan 2 nan nan 3 2 4 6 6 2 2 5 5 5 5 6 2 2 3 3 4 3 5 2 4 5 11 10 11 13 13 11 9 9 12 13 10 12 14 14 15 16 17 20 22 23 24 21 20 22 21 20 21 19 11 3 2 1 4 8 7 6 4 5 6 6 7 8 6 1 1 9 23 19 13 11 10 9 9 8 9 9 10 10 9 9 10
6 7 8 8 6 4 nan nan nan nan 3 3 3 3 3 2 4 4 3 1 1 4 5 5 5 4 1 3 3 2 1 4 6 2 4 8 12 11 12 14 15 13 8 7 11 13 8 10 13 15 14 15 16 18 20 22 24 22 19 17 19 20 21 20 16 7 1 6 4 2 3 5 5 3 2 2 1 5 4 3 11 23 23 15 12 11 10 9 9 9 10 10 10 9 9 9 9
8 7 6 9 nan nan nan nan nan 6 nan 2 1 2 3 3 5 4 1 1 0 2 4 6 6 3 4 1 4 0 4 2 5 7 9 9 11 11 12 13 15 13 8 6 10 11 8 9 11 13 13 13 16 17 18 20 21 23 20 17 16 17 20 18 14 10 3 1 4 7 8 7 8 8 6 5 2 2 10 16 24 23 17 12 11 10 10 10 10 10 9 8 8 8 8 8 7
7 8 6 9 nan nan 3 1 nan 3 5 3 4 2 1 2 3 5 3 1 2 4 6 9 6 3 3 4 3 1 1 3 7 10 9 9 10 10 10 12 15 13 6 5 7 10 5 7 9 10 12 15 15 16 17 19 19 19 20 18 16 13 14 11 9 8 9 7 7 3 1 2 1 3 4 12 14 19 25 26 20 16 12 10 10 9 10 10 10 9 8 7 7 8 8 7 7
7 9 7 8 nan nan nan nan nan 1 3 3 3 2 2 2 4 4 5 4 4 6 5 5 7 6 6 6 5 2 2 6 10 10 8 7 8 8 10 12 15 16 6 3 7 9 3 4 10 11 12 13 14 14 15 16 19 18 15 14 14 13 12 4 2 3 6 9 11 13 14 13 13 16 17 19 19 24 22 16 13 11 10 9 9 9 9 9 8 7 7 7 6 6 7 7 7
6 8 8 nan nan nan nan nan nan nan 4 5 6 4 3 4 6 5 4 5 3 5 7 10 6 10 8 6 4 3 7 10 10 11 8 6 6 7 9 11 14 15 8 5 7 6 4 5 6 10 10 11 13 13 14 14 16 16 12 9 8 9 8 2 1 1 3 6 8 10 12 12 12 12 12 13 14 14 11 10 9 9 8 8 8 8 8 8 8 7 6 6 6 7 7 8 8
5 7 8 8 nan nan nan nan nan nan nan 5 4 6 6 5 6 6 5 6 4 8 9 11 11 12 9 8 5 7 9 8 9 9 8 5 4 5 7 8 12 13 11 6 7 5 5 6 3 4 8 9 11 12 11 13 14 13 9 6 3 3 3 3 4 2 2 4 7 9 10 10 10 9 10 11 12 9 7 7 6 6 7 7 7 8 8 7 7 6 5 5 6 7 8 8 7
7 7 9 6 nan nan nan nan nan 1 nan 3 2 4 7 9 5 5 7 4 2 9 5 9 15 9 8 6 7 9 9 8 9 9 7 4 3 3 5 7 9 10 9 9 9 8 6 3 4 2 5 11 10 9 11 11 11 10 7 2 2 7 5 4 6 3 4 6 6 7 7 7 7 9 12 11 8 7 6 5 5 6 6 6 7 7 8 7 6 6 6 7 8 9 9 8 8
9 8 8 3 nan nan nan nan nan nan nan 2 2 2 4 6 4 6 7 6 5 7 5 13 13 11 6 6 7 9 7 10 11 8 4 3 3 2 4 6 8 7 9 8 8 10 12 6 5 5 6 5 4 5 7 7 9 9 6 4 2 5 8 6 6 6 6 7 5 5 6 6 7 8 8 7 7 7 6 6 6 7 7 8 8 8 8 7 6 6 7 9 10 10 9 8 7
7 8 8 nan nan nan nan nan nan nan 3 nan 1 3 2 3 5 5 4 3 2 2 7 8 8 10 8 11 8 9 11 12 10 5 5 4 5 3 4 5 6 6 8 7 6 8 11 9 5 3 2 1 3 3 1 4 7 6 5 3 1 4 7 8 8 7 6 6 6 5 6 6 7 8 8 8 8 8 7 8 8 8 8 9 8 8 7 6 6 7 8 10 11 11 9 7 5
8 9 9 8 nan nan nan nan nan nan nan nan 2 3 3 2 4 4 4 3 2 1 8 6 5 6 5 12 8 13 13 10 7 6 5 6 5 4 4 4 4 6 6 7 5 6 9 9 6 2 2 2 2 1 1 3 6 7 5 4 3 5 8 8 7 7 7 7 7 7 7 7 8 8 9 9 9 9 9 7 9 8 8 8 8 7 6 5 6 8 9 11 12 11 10 7 6
6 8 7 9 5 nan nan nan nan 7 7 3 3 4 3 3 5 3 6 5 6 4 2 4 8 5 6 3 11 13 9 9 9 9 6 5 4 4 3 2 2 3 5 5 5 5 8 8 6 3 2 3 3 2 1 3 6 8 6 6 7 8 8 8 8 8 7 7 7 7 8 6 6 7 7 6 10 8 8 8 9 8 8 7 7 6 5 6 7 9 10 12 12 10 10 9 8
6 8 10 7 9 nan nan nan nan 10 10 6 4 4 4 3 5 4 8 9 7 6 6 4 8 8 6 7 13 10 9 11 9 11 8 7 4 4 5 3 2 5 3 3 3 4 6 6 5 5 2 3 3 2 2 4 6 6 7 8 9 8 8 8 8 7 6 6 8 4 8 7 6 6 5 7 5 7 7 10 8 8 7 7 7 6 6 8 10 11 11 12 11 10 11 8 8
8 7 10 nan nan nan nan 9 nan 11 7 7 6 6 5 2 7 5 7 7 6 8 6 6 11 10 9 10 12 10 8 10 10 11 12 10 8 8 4 3 4 5 4 3 2 3 2 4 4 5 2 2 3 2 2 3 5 6 6 7 10 7 9 7 8 7 6 4 6 5 7 7 5 6 6 7 5 8 7 9 8 8 8 8 8 8 8 10 12 12 12 13 11 12 9 7 8
5 10 8 nan nan 5 5 7 6 4 9 9 6 5 6 4 6 7 6 7 6 6 6 6 8 8 9 10 10 9 8 11 10 11 11 9 7 7 4 5 5 6 7 7 4 2 2 2 3 3 2 1 2 2 2 3 4 6 6 6 8 9 8 6 6 6 5 5 5 6 6 6 6 7 9 9 7 5 5 7 8 8 8 9 9 7 7 10 13 13 12 12 8 5 6 7 9
nan nan nan 6 nan 10 4 6 7 6 6 7 7 6 6 5 7 8 9 12 4 5 1 7 9 11 11 12 11 10 7 7 6 8 10 8 7 3 2 3 5 6 7 7 5 5 5 2 2 2 1 2 2 3 3 2 4 5 6 6 5 6 6 6 5 4 5 5 6 6 6 6 6 7 7 6 4 4 4 5 5 3 2 3 4 1 3 6 7 6 6 6 5 8 7 8 10
nan nan nan nan nan 6 5 11 8 7 3 8 7 8 4 8 9 10 9 8 2 1 4 2 10 12 14 13 12 10 8 8 8 7 8 10 9 7 4 4 5 5 6 7 8 6 7 4 3 1 1 1 3 4 2 2 3 4 5 5 4 5 5 5 4 4 4 5 6 6 7 6 6 6 7 8 6 4 5 5 5 3 3 4 2 3 5 7 8 8 7 6 7 8 8 8 10
3 nan nan nan nan 4 5 10 10 10 6 5 6 5 7 9 10 10 8 5 6 6 7 7 9 11 10 9 11 11 10 8 9 9 8 7 8 6 6 5 7 7 6 6 6 7 7 6 4 2 1 2 3 4 3 4 4 4 4 4 3 5 5 4 4 4 4 3 5 6 6 6 6 6 8 8 8 6 5 4 5 4 4 5 4 5 7 8 9 8 6 6 7 8 9 9 10
nan nan 10 3 2 5 7 8 9 9 12 7 3 7 8 9 8 10 9 8 7 9 11 9 9 10 9 9 8 10 10 9 8 7 6 7 7 6 6 6 5 5 5 6 6 7 7 8 5 3 3 3 3 3 3 4 5 4 4 4 4 5 4 4 4 4 4 4 5 6 7 7 6 6 8 8 8 6 5 4 4 4 4 5 5 7 8 9 9 7 6 7 8 9 8 8 9
nan nan nan 2 3 6 5 5 7 8 8 7 5 7 6 8 8 12 9 9 10 10 12 11 10 8 6 7 7 7 6 5 5 4 2 1 2 3 4 3 5 6 6 6 5 6 6 6 5 5 4 4 4 3 3 5 5 4 4 4 4 5 4 4 4 3 5 5 6 7 7 6 6 6 7 7 6 6 4 3 3 4 3 5 6 7 8 9 9 6 7 7 8 8 7 8 9
nan nan 6 3 3 3 4 4 5 8 10 9 8 4 5 6 6 9 10 12 9 10 12 11 9 8 7 6 6 7 7 7 4 4 5 1 2 4 4 4 4 6 6 5 5 5 5 5 6 7 5 4 4 4 5 4 4 4 4 4 3 4 4 4 3 4 5 5 7 7 8 6 6 6 6 6 6 7 4 3 3 3 4 5 6 7 8 9 8 6 7 8 7 7 7 8 8
8 8 4 4 2 2 3 5 6 8 9 9 11 7 4 5 8 8 11 12 9 11 11 9 9 8 6 5 4 5 6 6 6 3 2 2 2 3 3 3 4 4 4 4 4 4 4 5 7 7 5 5 4 4 4 4 3 3 3 3 3 4 4 3 4 5 4 5 7 7 7 7 5 5 5 5 5 5 4 2 2 2 3 5 6 8 8 9 8 9 7 7 6 6 8 8 8
9 6 4 6 2 0 2 4 6 6 8 8 10 8 3 2 4 5 9 13 9 11 9 8 7 7 5 5 3 3 3 3 2 2 5 5 3 2 2 3 3 3 4 4 3 3 4 6 7 6 6 5 4 5 4 3 3 3 2 2 3 4 2 3 4 4 5 5 5 6 6 7 5 4 5 5 4 5 4 2 1 1 4 4 7 8 9 10 10 9 7 6 7 7 9 9 8
7 4 4 5 5 3 4 6 7 6 7 7 8 8 6 2 2 3 8 12 9 10 9 7 6 5 5 3 2 1 2 2 2 3 5 4 1 1 2 2 2 3 1 2 2 3 5 5 6 6 6 5 4 5 4 3 2 3 2 3 3 3 3 3 4 4 5 5 5 5 6 5 5 4 4 4 5 5 4 3 1 1 3 4 6 9 10 10 9 7 6 6 7 7 9 9 7
7 10 3 6 7 6 7 5 5 7 10 5 6 10 11 10 5 2 7 13 12 11 9 7 6 5 4 3 1 1 1 1 3 4 3 3 1 1 2 2 2 2 0 1 2 4 3 3 4 4 5 5 5 3 3 2 2 2 3 3 3 2 2 2 4 4 5 5 5 5 5 5 4 4 3 5 5 6 6 4 2 1 2 4 5 7 9 9 8 6 6 6 7 8 10 7 5
9 7 7 5 7 7 7 5 6 8 9 7 9 11 9 8 7 2 5 11 13 10 9 7 7 6 5 3 1 1 3 4 5 4 3 1 1 1 2 1 2 2 0 2 5 5 5 4 3 3 4 4 4 3 3 2 2 2 2 2 3 2 2 2 3 4 4 5 4 4 4 4 4 3 3 4 6 6 6 4 2 1 1 2 4 6 9 10 8 6 6 7 6 8 8 6 6
11 nan 9 10 5 8 8 5 6 8 7 5 10 11 13 9 6 1 2 8 12 11 9 7 7 6 6 6 3 1 4 4 3 3 2 1 2 1 1 2 3 4 5 4 4 5 6 5 5 4 4 5 4 3 1 1 0 1 2 2 2 2 2 2 2 3 3 3 3 3 3 4 4 4 3 3 6 5 4 4 3 2 0 1 3 6 9 9 7 6 6 8 7 9 7 6 6
14 nan nan nan nan nan 8 2 3 5 6 7 13 16 8 8 7 5 3 9 10 10 9 8 8 6 6 8 7 4 4 4 4 3 1 2 3 2 1 1 3 5 4 4 4 5 7 6 7 6 6 6 5 4 2 1 1 1 1 2 1 2 2 2 3 3 3 3 2 3 3 4 4 3 3 3 4 5 5 5 4 2 3 2 1 4 7 6 6 6 6 8 9 9 6 4 3
nan nan 7 nan nan nan nan 3 3 4 6 11 13 15 15 11 9 10 6 9 12 9 8 9 8 8 7 9 8 6 5 5 3 3 3 2 4 3 2 0 2 2 3 4 5 6 7 6 7 6 4 5 4 3 2 2 2 2 2 2 3 3 3 3 4 5 3 3 3 2 3 4 5 4 3 3 4 5 5 5 4 3 4 3 2 1 3 2 5 7 6 8 9 8 6 4 3
nan nan nan nan nan nan nan 1 4 8 7 11 15 18 18 17 13 13 11 6 12 12 11 10 10 10 9 9 9 7 6 5 3 3 4 3 6 4 3 2 1 3 2 4 4 4 4 5 6 6 5 4 3 2 1 1 2 3 3 3 3 3 4 4 5 5 4 4 4 3 4 5 5 5 3 3 4 5 6 6 5 5 7 6 4 2 2 2 2 5 7 7 8 8 5 2 2
nan nan nan nan nan nan nan nan 4 16 11 13 18 21 21 20 17 15 12 8 11 11 11 14 13 13 13 10 9 9 8 6 5 5 5 5 6 6 4 3 3 4 4 4 5 5 5 5 6 6 5 5 2 1 1 1 2 2 2 2 3 3 4 5 5 4 5 5 5 5 5 5 5 5 4 4 4 6 6 6 5 7 8 7 5 3 6 6 7 8 7 7 6 4 4 3 1
nan nan nan nan nan nan nan 2 6 11 7 16 19 19 17 18 18 18 16 11 10 10 10 10 13 14 13 12 8 9 9 6 9 7 7 5 6 7 5 4 4 6 6 5 7 7 5 6 7 8 6 6 5 4 2 2 1 1 2 1 1 3 4 4 4 5 6 6 5 5 5 5 5 6 6 5 5 6 6 7 7 7 9 8 5 3 5 5 5 7 8 6 6 4 2 3 3
nan nan nan nan nan nan nan nan 3 10 11 9 12 13 19 22 17 16 13 15 16 15 11 6 10 14 14 13 10 9 11 18 16 13 10 9 8 8 7 6 6 7 5 6 7 8 6 5 7 7 6 6 7 7 6 4 3 2 2 1 2 4 5 4 3 5 7 7 7 7 6 6 6 6 7 7 7 7 7 8 7 6 9 9 5 2 1 3 6 8 8 7 5 5 3 2 4
nan nan nan nan nan nan nan 4 2 6 6 11 7 13 19 20 17 17 18 20 16 16 15 9 8 12 13 14 15 16 17 13 12 10 11 10 9 9 8 7 6 6 7 6 6 7 6 5 5 6 7 8 7 7 6 6 4 3 3 2 2 3 4 4 4 6 7 8 8 8 8 7 7 7 6 7 8 9 8 9 7 8 9 9 8 6 5 5 8 9 8 6 3 4 2 2 3
nan nan nan nan nan nan nan 2 3 6 9 6 6 10 13 13 14 18 19 20 14 16 14 8 5 9 12 12 14 15 14 14 11 11 10 11 11 10 10 8 7 8 7 5 5 6 5 5 5 6 7 8 9 8 6 5 5 3 3 4 3 3 4 4 5 7 7 8 8 9 9 8 7 6 6 8 8 8 10 9 9 9 8 9 9 7 5 4 9 9 8 7 6 5 6 4 5
nan nan nan nan nan nan nan nan 4 5 6 5 2 4 10 10 11 12 12 14 13 14 12 7 4 9 12 15 15 14 12 13 14 13 14 14 12 11 10 9 10 9 7 5 6 7 5 6 7 8 7 8 9 9 6 6 6 5 5 7 6 4 6 7 6 5 6 7 8 10 9 8 7 6 7 7 9 8 10 10 10 9 9 9 10 8 7 5 6 7 8 8 6 4 3 4 4
nan nan nan nan nan nan nan 4 7 4 5 8 4 nan 6 nan 10 14 13 15 16 12 16 13 4 5 11 12 12 15 17 18 15 12 12 12 11 12 12 11 10 9 7 5 6 8 7 7 9 10 8 8 9 10 9 8 7 7 7 7 6 4 2 4 4 4 6 6 5 8 9 9 8 8 8 8 8 10 10 10 11 11 9 9 10 8 7 7 6 5 6 6 6 5 3 3 5
nan nan nan nan nan nan 1 6 6 6 8 5 7 12 8 5 nan 14 17 18 18 11 15 15 10 4 3 6 10 12 13 15 16 16 16 16 14 13 13 12 11 10 8 7 7 9 9 8 10 13 12 9 8 10 10 8 6 6 7 7 6 6 4 1 5 6 6 6 6 6 7 9 9 8 8 8 8 9 10 11 11 10 9 9 9 10 8 7 6 6 8 8 6 8 7 3 4
nan nan nan nan nan nan 4 8 7 7 7 3 4 8 7 9 14 nan nan 18 15 12 13 15 15 12 7 2 3 6 9 12 16 17 17 16 15 13 13 12 12 11 11 10 8 9 10 10 12 13 12 10 7 8 9 8 6 5 5 5 6 5 5 3 4 5 6 7 6 4 6 8 9 8 7 7 8 9 10 11 11 10 9 9 10 9 8 8 7 7 7 7 8 8 6 4 5
nan nan nan nan nan nan 3 4 3 4 5 6 4 7 7 10 15 nan 13 15 14 15 16 17 18 17 15 9 4 0 4 9 13 18 20 20 17 15 17 17 15 16 14 11 10 10 10 12 12 12 12 10 8 7 7 6 5 4 4 5 4 4 3 2 5 6 6 6 5 4 5 7 9 8 7 7 8 9 9 10 11 10 9 9 9 9 8 9 8 7 6 6 6 6 6 6 6
nan nan nan nan nan 9 4 1 2 5 nan nan 8 9 9 13 14 10 10 12 nan 16 nan 18 18 20 19 15 10 4 2 6 8 13 20 24 21 20 21 21 19 15 15 13 12 12 11 12 12 12 11 9 9 7 7 6 5 5 5 4 4 3 4 4 7 5 5 7 5 4 5 6 8 9 8 8 8 8 8 9 11 10 8 8 8 8 8 8 8 7 6 5 7 6 7 7 6
nan nan nan nan 14 9 7 5 4 4 nan nan nan 14 9 nan nan nan 18 20 nan nan nan nan nan 15 16 16 15 10 5 6 7 10 16 23 27 25 24 20 17 17 17 15 13 12 13 12 12 12 10 9 9 8 7 6 5 6 5 5 5 5 5 6 6 4 5 6 5 4 5 6 8 8 9 9 8 9 8 9 9 9 9 8 7 8 7 7 8 7 6 7 8 6 7 8 7
nan nan nan nan nan nan nan nan 6 3 nan nan nan 11 7 13 nan nan nan 15 nan nan nan nan nan nan 17 15 14 14 10 7 7 8 7 11 19 19 18 19 18 16 16 15 14 14 13 12 13 13 9 9 9 8 7 6 6 5 5 6 5 5 7 7 6 5 6 6 6 5 6 7 7 8 9 9 8 8 9 8 8 8 8 8 6 6 7 7 8 8 8 8 8 8 8 8 8
nan nan nan nan nan nan nan nan nan 2 nan nan nan 10 5 13 nan nan nan nan nan nan nan nan nan nan nan 14 14 13 12 10 8 7 6 5 8 10 13 17 17 16 14 14 14 13 13 13 13 13 7 9 9 9 8 7 6 5 6 7 6 7 8 8 7 6 7 7 7 6 7 5 6 7 8 8 7 7 9 8 8 7 7 7 6 6 5 6 7 8 8 8 9 8 8 8 8
nan nan nan nan nan nan nan nan nan nan nan nan nan 10 10 nan 9 15 18 nan nan nan nan nan nan nan nan nan 15 13 12 13 11 8 5 4 5 6 8 11 13 14 13 13 13 13 13 11 11 11 9 10 9 10 9 8 7 6 6 7 7 8 9 8 7 7 8 8 8 7 7 6 6 6 7 7 8 9 9 8 8 7 7 6 6 6 5 6 7 8 8 8 9 9 10 9 8
nan nan nan nan nan nan nan nan nan nan nan nan nan nan 11 7 nan nan 16 16 14 17 nan nan nan nan nan nan 13 13 12 11 11 9 7 5 4 5 6 7 10 11 11 11 12 12 12 11 11 10 11 10 10 10 10 9 8 7 7 7 8 10 10 9 7 7 8 8 8 8 6 7 7 7 7 8 9 9 9 9 8 8 7 6 7 7 7 7 7 8 8 8 9 11 11 11 10
nan nan nan nan nan nan nan nan nan nan nan nan 5 nan nan nan nan nan 11 11 12 nan nan nan nan nan nan 17 18 16 15 13 11 10 9 7 5 3 5 6 6 8 9 11 11 11 11 11 12 10 8 10 10 10 10 10 9 9 8 8 9 14 12 9 8 8 8 8 9 8 7 6 6 7 8 9 9 10 10 9 9 7 6 6 7 7 7 8 8 8 8 10 9 12 12 11 10
nan nan nan nan nan nan nan nan nan nan nan nan nan nan nan nan nan 8 6 10 14 15 nan 19 18 18 18 18 17 16 16 15 12 10 9 8 5 3 3 4 5 7 9 10 10 10 10 12 12 9 7 9 9 9 9 9 10 10 8 9 11 14 11 9 8 8 8 9 10 9 8 7 7 7 8 9 8 9 9 9 8 7 6 6 6 7 8 8 8 9 9 9 9 11 12 11 12
nan nan nan nan nan nan nan nan nan nan nan nan nan nan nan nan nan 5 5 9 14 15 19 20 19 20 20 16 16 16 17 17 14 11 8 8 7 6 3 3 5 7 7 8 8 8 9 10 10 8 8 9 8 8 8 9 9 9 9 9 10 12 11 9 8 8 10 11 10 9 9 9 8 8 9 9 9 8 9 7 8 7 7 7 7 8 9 9 9 10 9 9 9 10 11 13 13
nan nan nan nan nan nan nan nan nan nan nan nan nan nan nan nan nan nan nan 13 16 17 16 19 21 21 18 15 13 12 12 13 12 10 8 6 5 5 6 5 6 7 7 8 8 9 9 9 8 7 8 8 10 9 9 9 9 9 9 9 9 10 11 12 11 13 16 9 7 8 9 9 9 9 9 9 9 8 9 8 8 7 8 8 9 9 10 10 11 11 11 10 9 10 11 12 13
nan nan nan nan nan nan nan nan nan nan nan nan nan nan nan nan nan nan nan nan nan 19 18 19 21 20 17 14 14 15 16 15 13 10 8 7 6 6 7 8 9 8 8 8 9 8 8 8 8 6 6 8 10 11 11 10 9 9 9 9 8 9 11 16 16 14 10 6 6 9 10 9 8 10 9 9 10 9 8 8 8 8 8 9 9 10 10 11 12 12 12 12 11 10 10 11 12
nan nan nan nan nan nan nan nan nan nan nan nan nan nan nan nan nan nan nan nan nan 25 24 19 18 16 13 14 14 14 15 15 12 10 8 7 8 8 8 8 9 10 10 10 8 6 6 7 7 7 9 10 11 11 11 9 12 10 8 7 6 7 10 16 11 9 9 6 8 9 9 10 11 9 10 10 10 10 9 10 9 9 9 10 11 10 12 12 13 13 13 13 12 11 10 12 13
nan nan nan nan nan nan nan nan nan nan nan nan nan nan nan nan nan nan nan nan 17 20 22 20 16 15 13 13 14 13 13 12 12 8 8 8 10 10 11 12 11 11 11 10 8 7 7 8 7 9 9 9 10 11 11 11 12 9 7 7 5 7 10 16 12 8 8 8 10 10 11 13 9 10 11 11 11 11 11 11 11 10 10 10 11 11 11 13 13 14 14 15 13 12 11 11 13
Wind_Direction
10 226 217 207 185 209 191 167 171 nan 170 nan nan nan 131 139 133 nan nan nan 167 45 nan 89 nan nan nan nan nan 298 160 319 nan nan nan 184 213 234 212 242 251 249 250 249 251 253 261 285 293 298 306 310 320 310 291 289 287 277 260 259 289 284 282 306 328 279 267 266 285 301 289 274 285 279 295 255 231 216 207 230 307 301 301 308 309 309 309 305 300 297 296 290 289 290 290 291 293
233 236 222 182 157 183 179 197 nan nan nan nan nan nan nan nan 155 141 133 nan nan nan nan 15 nan 168 220 257 295 304 210 188 149 176 209 226 236 212 227 253 256 255 241 240 244 245 254 269 284 299 309 314 316 312 314 313 308 308 319 321 290 284 291 299 292 269 243 279 283 303 296 299 302 290 293 288 241 224 208 177 161 272 306 338 337 340 338 333 326 314 303 299 300 300 303 308 312
246 254 213 217 204 259 262 224 226 nan nan nan nan nan 146 162 149 133 112 108 87 40 52 306 335 62 81 356 327 59 56 261 254 257 239 265 276 237 251 248 248 246 244 235 242 246 252 271 287 297 304 311 311 313 313 318 313 311 313 314 305 290 285 285 284 288 290 295 303 325 336 328 327 305 303 293 272 233 221 182 122 166 131 27 13 6 358 349 341 330 318 315 315 316 321 328 325
251 245 270 251 230 220 242 nan nan nan nan nan nan nan 161 135 139 114 100 109 96 40 35 356 338 49 19 360 19 6 318 345 357 308 277 307 212 263 263 255 253 240 231 234 245 252 259 286 294 297 303 302 305 310 319 323 315 310 306 301 299 291 288 288 262 274 286 303 337 325 316 338 331 321 312 309 295 292 331 49 99 230 113 48 26 15 7 358 353 342 334 328 328 330 334 335 330
254 266 261 253 253 223 nan nan nan nan nan nan nan nan 172 159 118 128 109 90 53 6 nan 360 346 5 350 333 358 8 41 279 314 350 235 227 260 269 264 255 247 243 231 241 250 254 265 289 296 298 295 295 301 306 311 312 309 310 309 302 296 293 293 293 279 266 295 326 338 330 325 8 5 341 324 332 349 8 24 25 338 203 72 42 22 13 7 3 357 350 344 337 337 339 338 336 332
236 245 243 255 248 253 nan nan nan nan nan 160 nan nan 157 160 141 130 107 71 359 355 10 7 359 354 355 319 328 342 356 6 352 26 286 259 281 277 267 256 249 245 231 235 250 251 259 296 306 301 295 297 300 302 302 306 306 307 306 301 294 291 292 292 279 235 179 104 337 336 345 356 14 8 351 357 13 23 13 345 215 55 48 29 15 10 6 4 358 353 350 348 344 343 341 338 339
230 240 231 247 257 253 nan nan nan nan 93 142 132 116 115 138 144 162 159 125 102 333 1 8 334 313 348 346 307 293 131 348 340 27 260 290 283 278 267 255 254 255 239 220 245 248 248 303 307 301 295 293 299 299 302 306 306 306 301 290 292 293 291 292 296 298 146 134 141 237 313 337 360 352 7 24 142 169 144 53 45 44 35 18 10 8 8 2 359 359 357 351 349 345 346 346 344
244 243 240 259 nan nan nan nan nan 15 nan 86 124 109 121 170 188 216 185 328 101 338 343 344 326 315 42 283 343 143 193 175 293 279 285 295 288 273 264 262 266 262 227 186 235 251 299 309 303 301 304 303 305 306 308 313 311 310 304 292 276 280 283 284 291 300 330 258 174 181 178 178 183 177 167 165 143 75 64 46 32 27 19 6 4 5 5 3 3 4 360 352 349 348 347 349 343
233 251 254 257 nan nan 272 19 nan 82 127 151 145 200 217 250 241 267 267 334 340 324 321 343 345 347 26 288 327 80 178 291 297 302 302 298 285 270 263 270 274 265 238 181 233 244 225 307 297 297 302 301 305 311 316 318 319 316 306 295 287 281 275 275 298 322 325 339 320 312 71 69 11 56 47 51 18 32 31 29 19 13 5 358 1 5 6 7 9 6 360 358 354 352 351 352 344
259 253 235 266 nan nan nan nan nan 91 106 121 164 189 254 264 291 288 311 286 346 331 336 336 336 341 325 322 355 53 353 320 310 310 311 293 276 264 265 271 276 279 258 217 233 233 180 314 307 300 302 306 311 317 318 324 328 325 311 288 291 296 286 286 309 329 325 335 338 349 7 8 10 16 19 30 17 28 30 15 12 2 354 356 0 6 7 13 13 8 9 6 1 355 1 3 357
260 246 271 nan nan nan nan nan nan nan 142 180 172 215 228 249 279 285 286 296 335 344 352 329 320 328 319 340 1 350 333 328 327 330 319 301 280 268 260 274 273 281 289 253 248 229 168 176 280 299 313 321 324 327 331 336 343 340 325 290 277 293 296 282 72 338 331 335 340 360 1 360 8 22 38 43 45 36 25 14 4 357 352 354 4 11 18 20 20 21 21 14 9 13 19 19 16
267 255 244 268 nan nan nan nan nan nan nan 182 211 242 239 261 266 280 290 296 336 336 348 345 351 333 310 346 14 348 334 340 339 335 326 311 279 265 262 270 275 282 292 297 287 253 195 157 166 318 340 346 341 346 341 345 352 350 335 309 234 238 255 161 105 17 330 8 354 358 351 353 11 26 46 47 45 36 26 19 6 355 357 6 12 24 35 32 32 34 36 28 30 35 38 35 30
296 283 267 273 nan nan nan nan nan 207 nan 183 272 233 238 255 250 274 287 267 319 321 7 359 326 329 320 356 354 341 348 344 347 339 334 330 295 269 258 269 270 285 290 295 304 303 300 85 101 66 38 5 355 352 344 348 348 352 347 337 137 145 151 125 103 68 342 49 21 4 353 359 23 44 43 40 39 42 36 29 16 7 11 16 26 36 40 43 38 45 48 45 46 50 48 40 31
303 310 293 286 nan nan nan nan nan nan nan 249 243 284 220 226 238 251 273 276 299 319 339 327 330 318 307 343 7 356 354 343 345 344 336 297 278 282 280 266 274 281 285 289 306 313 312 11 46 34 32 8 46 2 342 353 354 353 353 8 59 123 124 82 69 57 28 21 26 9 8 14 30 43 52 48 44 45 42 33 24 17 20 25 30 38 43 42 45 51 52 56 59 60 50 38 25
316 318 303 nan nan nan nan nan nan nan 259 nan 243 283 203 216 243 250 261 244 261 260 290 310 332 313 7 1 18 13 346 342 344 326 305 281 279 291 283 276 280 275 281 295 313 310 315 334 352 36 39 40 108 169 186 23 12 17 6 25 17 92 97 79 56 46 25 26 27 29 35 41 52 51 49 48 47 42 36 32 28 24 27 29 35 45 50 51 56 64 68 71 74 66 55 50 36
331 312 316 314 nan nan nan nan nan nan nan nan 242 242 230 213 249 220 229 200 201 235 323 327 340 319 350 0 10 347 335 327 320 301 298 289 278 278 272 275 278 290 279 291 299 304 301 310 321 4 20 41 65 61 3 85 29 18 18 44 44 64 81 71 56 45 31 26 30 38 44 63 59 60 43 53 44 42 35 31 40 31 36 40 42 50 58 62 66 75 76 79 79 71 65 62 46
329 325 324 307 297 nan nan nan nan 263 269 266 250 271 267 234 259 239 213 205 264 325 275 307 341 292 339 357 326 321 306 293 305 308 297 304 307 315 297 276 288 275 265 289 290 282 285 300 310 311 16 26 38 46 40 53 62 25 58 62 60 67 76 72 66 48 45 44 46 55 63 90 104 91 73 73 51 56 42 30 45 40 47 48 50 55 63 66 70 75 77 78 77 72 68 66 48
333 332 320 331 320 nan nan nan nan 264 265 277 286 307 274 222 253 241 230 221 220 263 231 227 235 241 285 312 316 310 296 299 306 318 328 330 353 350 353 355 0 329 304 276 269 265 272 287 304 297 337 38 40 39 55 70 94 69 118 118 113 93 86 85 97 107 72 103 70 82 112 110 115 109 99 65 88 67 55 38 46 48 53 57 58 61 65 69 72 73 76 80 80 72 70 33 12
334 324 313 nan nan nan nan 284 nan 263 256 276 303 294 303 241 256 250 245 235 244 242 214 241 254 260 281 305 314 309 308 308 316 332 338 345 5 9 31 35 30 3 352 340 325 314 276 271 276 288 318 52 52 55 64 100 115 131 127 105 112 99 103 113 117 109 119 104 108 119 117 120 107 111 101 80 88 58 63 58 49 58 59 60 62 62 63 68 73 78 78 80 81 76 49 27 17
359 299 330 nan nan 292 283 298 325 303 269 272 293 288 289 247 246 231 253 275 262 275 272 233 274 305 321 326 320 317 322 326 321 333 338 350 2 14 21 17 13 6 350 346 326 330 325 277 281 283 303 68 101 108 123 154 153 145 123 105 114 127 127 122 117 114 112 104 108 116 111 109 114 110 86 60 68 62 78 74 69 65 69 67 64 64 74 72 75 77 82 86 79 34 29 30 14
nan nan nan 297 nan 282 310 355 8 358 299 278 289 263 255 221 231 232 266 267 219 198 275 299 325 332 334 336 332 325 325 326 310 323 336 347 359 8 20 353 346 337 336 333 326 354 3 349 299 293 233 154 125 123 142 153 159 148 124 106 122 130 133 125 115 123 116 116 116 111 107 106 115 112 110 119 125 109 89 91 101 112 121 112 104 108 69 70 72 68 65 64 47 51 47 33 20
nan nan nan nan nan 276 330 5 1 336 318 273 258 265 252 216 220 228 279 282 321 316 326 238 317 330 330 337 337 336 337 345 338 335 340 350 357 359 306 289 294 310 327 342 351 0 14 22 22 333 194 159 118 115 134 141 136 119 106 108 128 125 122 117 115 112 119 128 125 118 114 118 113 113 112 110 116 127 107 93 97 108 104 82 61 68 69 67 62 55 53 49 41 43 48 31 26
318 nan nan nan nan 337 7 6 358 332 323 296 266 237 229 223 217 217 224 219 202 219 250 285 314 319 317 318 328 340 352 3 3 360 350 350 356 345 326 325 327 332 348 348 354 11 16 28 43 33 106 145 134 141 162 157 132 116 120 104 94 96 114 103 93 88 92 131 136 125 122 113 107 101 95 103 109 125 118 109 94 98 88 68 44 45 60 59 58 56 48 44 39 41 45 28 26
nan nan 272 291 16 36 40 14 353 338 329 345 293 241 224 214 230 218 217 194 180 209 263 277 279 289 304 319 342 352 0 8 16 10 3 0 357 342 336 338 332 320 336 341 358 13 20 29 50 61 102 108 132 159 152 143 132 122 107 84 95 85 106 96 92 77 74 113 134 130 128 113 102 92 88 92 100 123 118 111 96 83 73 62 43 36 51 52 53 52 48 49 44 36 40 33 28
nan nan nan 320 44 62 33 4 352 346 337 338 310 272 230 216 199 200 201 183 182 237 261 271 279 285 296 319 342 354 2 12 10 1 1 74 358 297 313 319 328 330 347 350 354 8 22 29 44 58 82 87 116 136 118 135 133 129 112 99 97 87 101 97 98 106 78 100 126 129 129 116 104 93 88 89 93 102 112 100 70 60 49 58 47 47 46 53 51 46 45 46 38 39 40 37 31
nan nan 291 306 62 61 40 342 349 354 353 349 322 297 226 201 182 203 201 183 193 246 258 272 274 279 304 333 345 358 360 11 5 353 10 27 327 312 341 352 340 352 1 345 348 9 17 19 38 50 67 88 102 109 120 127 124 115 102 94 110 93 103 115 128 115 97 96 115 127 122 119 98 87 90 94 90 99 98 84 46 39 32 42 41 53 50 51 53 52 46 42 36 38 45 38 29
270 259 227 281 61 29 46 6 4 9 6 10 354 354 274 186 212 202 216 192 220 236 251 264 279 286 295 318 350 10 0 7 13 342 349 25 17 2 355 354 5 3 344 356 356 7 16 20 37 46 61 66 95 98 115 122 129 116 104 110 105 98 112 139 134 128 115 106 114 124 119 111 101 91 89 92 99 104 111 94 51 29 36 31 33 49 49 47 46 46 42 37 39 43 48 41 29
252 276 246 211 188 203 29 7 15 14 17 12 12 9 341 205 223 225 226 215 230 251 244 264 266 279 286 312 343 27 20 11 19 9 20 22 34 32 4 7 19 3 7 15 14 5 21 30 33 36 45 60 66 78 93 110 112 111 111 131 110 111 151 139 137 131 120 115 120 118 114 108 105 100 95 101 101 107 116 124 106 33 45 36 33 46 48 43 39 40 28 25 43 43 53 48 29
220 194 145 154 165 103 62 41 36 27 38 20 40 27 25 358 16 207 235 244 237 250 253 259 262 266 277 295 316 44 44 12 44 87 59 54 83 118 28 23 10 21 84 17 9 18 27 34 40 37 32 45 47 60 82 93 113 115 125 127 129 146 150 151 140 128 125 129 130 120 111 106 111 106 112 115 126 122 134 147 165 56 59 42 39 50 53 49 44 34 24 19 42 43 47 48 21
201 186 158 156 140 106 90 59 38 41 49 48 41 42 58 48 42 203 254 265 250 243 250 247 232 231 236 252 318 25 103 57 56 71 82 74 77 45 39 18 18 43 30 158 18 37 42 64 64 53 33 32 36 55 76 98 110 135 146 143 138 144 153 164 148 141 137 134 132 117 111 113 117 125 131 133 134 137 143 153 166 147 76 56 54 55 55 50 44 22 18 18 38 39 48 44 26
182 168 181 142 138 105 104 62 46 47 47 42 34 32 63 54 69 108 239 280 288 275 258 250 230 217 211 212 228 274 72 62 42 53 71 76 181 160 45 359 17 21 22 34 36 32 29 44 52 68 38 31 33 34 55 90 146 154 160 155 137 132 157 172 167 156 145 141 137 122 116 121 128 129 137 131 134 141 149 167 206 191 77 69 55 51 47 47 26 11 350 23 36 45 49 41 18
186 nan 154 148 127 112 116 81 25 33 53 27 22 26 36 37 32 77 271 284 300 288 268 259 241 223 209 199 202 181 86 75 77 87 86 243 265 216 23 14 15 19 18 23 34 30 34 39 36 34 25 25 35 26 29 59 125 182 182 170 166 165 176 176 185 170 153 165 143 127 126 133 135 135 132 133 137 147 173 201 204 219 92 101 60 43 34 38 7 353 357 0 25 49 49 43 1
180 nan nan nan nan nan 155 98 30 31 22 36 14 20 33 6 7 13 333 294 313 296 277 263 253 242 213 193 187 165 143 147 158 151 182 251 248 241 237 1 22 20 14 13 25 26 37 41 36 28 27 25 33 24 346 310 266 243 188 176 192 197 185 178 198 206 195 196 179 145 149 146 139 145 133 137 147 159 205 223 220 224 213 185 57 31 33 25 342 344 346 352 3 42 41 42 14
nan nan 174 nan nan nan nan 160 29 24 9 31 19 7 13 5 357 349 330 312 313 309 278 250 239 239 222 192 178 172 166 180 161 193 213 255 241 278 256 214 19 355 2 9 13 16 25 34 42 38 39 36 44 40 3 327 294 270 222 202 213 207 186 194 211 232 216 210 218 170 167 161 159 153 146 152 160 178 211 235 228 225 222 221 273 290 71 46 356 337 356 350 359 14 34 23 27
nan nan nan nan nan nan nan 143 45 348 39 27 19 15 23 21 3 2 349 331 323 320 286 257 232 222 222 198 181 175 183 186 163 218 237 260 259 263 272 253 278 312 301 337 347 5 13 27 36 35 27 32 44 59 55 286 277 268 249 231 220 219 202 204 223 233 228 231 228 209 196 180 172 168 165 183 185 190 210 223 224 235 237 222 245 287 72 59 356 315 343 351 349 2 19 25 28
nan nan nan nan nan nan nan nan 35 2 17 34 20 20 20 21 8 2 355 340 335 328 283 253 231 220 213 207 189 185 193 174 177 219 239 236 254 265 266 262 272 286 286 298 317 325 354 9 20 24 17 12 9 16 227 246 250 276 279 228 212 226 223 221 230 232 238 236 227 230 213 192 184 186 185 204 201 200 213 217 219 234 244 252 261 354 25 12 354 336 345 337 342 339 2 43 15
nan nan nan nan nan nan nan 108 44 15 17 34 30 30 29 26 10 9 355 340 341 329 314 263 234 232 223 208 197 186 199 183 196 215 234 240 256 266 267 264 264 270 281 300 312 317 332 353 352 9 357 350 356 352 5 350 314 247 231 293 283 256 250 241 237 241 247 243 233 234 224 207 203 203 206 222 218 211 219 226 230 226 243 247 266 9 28 7 332 315 301 288 302 285 275 313 299
nan nan nan nan nan nan nan nan 29 30 16 38 19 24 42 39 12 9 355 343 359 349 338 299 246 242 235 220 196 198 206 212 216 216 219 225 235 249 256 250 258 276 284 298 318 321 325 337 356 2 335 338 352 357 3 5 357 345 290 278 248 252 260 262 249 245 251 248 243 232 225 218 218 220 216 230 224 233 228 233 239 233 248 252 264 270 321 315 290 285 280 263 247 274 293 288 270
nan nan nan nan nan nan nan 230 333 17 16 57 6 15 43 39 17 2 0 359 1 1 350 333 282 249 239 229 215 209 228 232 228 223 230 238 243 252 257 255 264 294 293 307 320 308 325 338 353 352 342 335 338 342 352 4 354 339 328 272 297 252 243 254 257 255 256 257 253 245 233 225 225 222 229 234 235 240 244 246 244 247 254 256 254 243 247 297 289 282 284 280 266 250 251 230 248
nan nan nan nan nan nan nan 212 307 5 358 37 14 21 46 37 20 10 8 0 3 8 1 333 272 254 243 238 232 225 230 252 253 243 241 241 246 253 253 250 255 259 262 264 277 311 319 335 334 340 339 333 323 328 339 345 344 332 314 279 275 279 257 245 236 234 243 250 252 255 245 240 232 226 234 242 239 245 254 257 254 256 258 263 268 268 269 274 276 280 277 273 262 209 220 200 229
nan nan nan nan nan nan nan nan 358 359 21 343 330 44 49 18 15 16 8 360 350 4 2 346 242 207 223 225 228 226 238 247 248 239 235 239 243 251 261 259 256 263 270 285 297 304 299 335 330 328 324 322 305 303 311 295 294 290 277 252 251 243 222 252 254 234 249 250 248 252 252 253 244 231 229 240 245 246 254 257 260 259 261 264 267 272 273 271 270 276 279 273 277 262 201 203 194
nan nan nan nan nan nan nan 359 332 2 34 25 338 nan 32 nan 33 31 1 351 359 1 2 14 1 209 215 220 222 218 214 221 239 252 251 250 252 248 245 252 260 262 272 286 295 303 309 322 314 313 311 308 301 296 289 282 304 308 301 302 304 296 313 281 296 292 266 261 258 252 247 252 249 235 231 237 243 245 252 258 258 258 256 260 268 270 265 253 251 264 275 277 271 272 242 229 184
nan nan nan nan nan nan 336 8 335 30 30 67 329 346 41 71 nan 32 5 358 3 354 8 15 21 36 200 211 225 231 224 221 219 223 230 237 238 249 252 254 260 264 263 266 279 295 306 304 307 313 316 313 299 284 278 270 288 304 329 335 321 321 332 301 259 265 278 271 268 267 254 250 250 248 238 245 247 247 249 253 257 258 257 262 265 268 265 267 265 267 262 268 273 269 268 217 188
nan nan nan nan nan nan 11 359 4 39 42 28 313 334 17 87 68 nan nan 1 7 11 19 19 25 32 40 94 215 238 239 232 230 231 232 232 239 249 260 256 251 257 257 257 269 276 293 298 304 310 305 306 297 273 267 268 283 304 321 327 315 314 329 339 295 282 275 275 285 280 262 252 252 251 244 246 251 255 254 257 260 261 261 260 264 270 271 267 258 250 260 265 265 274 273 248 188
nan nan nan nan nan nan 283 340 26 54 42 65 29 31 33 53 52 nan 6 2 18 31 25 24 25 29 31 36 50 60 250 249 244 237 234 234 232 230 237 242 234 235 244 257 266 274 283 290 294 292 298 299 294 288 272 265 265 294 315 306 311 310 310 290 269 268 279 283 297 273 266 257 255 253 247 245 249 255 255 262 267 265 261 258 259 265 266 268 271 262 257 258 261 262 263 245 232
nan nan nan nan nan 208 223 198 114 108 nan nan 32 29 23 61 44 21 15 13 nan 29 nan 22 21 23 25 25 30 22 275 253 250 246 239 231 225 225 225 229 232 232 238 247 253 258 265 274 284 287 291 288 284 287 282 276 268 264 290 310 337 313 281 263 269 281 285 287 300 294 272 261 258 254 252 249 249 256 259 259 265 269 266 261 259 266 266 266 267 267 265 260 260 249 253 249 242
nan nan nan nan 217 184 159 186 115 121 nan nan nan 29 9 nan nan nan 358 16 nan nan nan nan nan 20 25 26 19 10 339 293 278 265 246 232 230 233 226 227 231 230 233 244 250 256 258 264 273 275 273 266 266 281 289 299 280 269 288 320 342 333 306 291 285 284 284 281 294 284 276 262 256 257 254 253 256 260 265 267 269 273 268 262 259 271 273 272 272 274 267 264 260 263 252 252 236
nan nan nan nan nan nan nan nan 166 92 nan nan nan 25 11 13 nan nan nan 20 nan nan nan nan nan nan 16 16 17 14 1 331 306 307 299 239 237 249 232 217 227 234 236 242 245 250 251 251 260 265 272 274 267 275 284 296 293 286 281 299 322 322 308 299 313 318 303 306 300 292 272 258 250 247 250 250 250 256 265 269 272 273 275 271 265 265 267 272 270 270 267 266 261 262 258 254 247
nan nan nan nan nan nan nan nan nan 78 nan nan nan 346 23 38 nan nan nan nan nan nan nan nan nan nan nan 5 7 6 3 354 346 339 321 271 252 244 218 211 223 231 237 244 249 253 252 254 264 277 276 275 281 281 290 295 295 298 292 289 293 288 293 301 303 304 293 294 290 286 279 275 257 249 252 253 249 257 259 262 265 269 269 270 261 258 256 268 269 270 271 269 267 265 267 266 256
nan nan nan nan nan nan nan nan nan nan nan nan nan 11 20 nan 51 26 38 nan nan nan nan nan nan nan nan nan 354 352 355 358 1 355 343 305 267 241 224 223 233 235 239 245 247 251 252 255 265 272 271 269 274 280 287 290 296 298 292 288 288 279 279 283 285 289 284 280 281 290 293 288 281 275 266 267 263 256 253 256 258 260 261 260 258 252 251 257 266 269 273 270 272 270 267 268 261
nan nan nan nan nan nan nan nan nan nan nan nan nan nan 32 360 nan nan 18 30 14 5 nan nan nan nan nan nan 336 341 346 350 353 357 358 347 306 271 251 240 238 239 244 244 242 246 249 254 260 266 269 274 277 282 278 287 287 288 286 285 281 278 266 265 269 272 277 275 271 276 281 274 274 274 275 268 269 266 260 256 256 255 260 261 253 240 235 245 255 260 266 268 264 269 270 266 262
nan nan nan nan nan nan nan nan nan nan nan nan 349 nan nan nan nan nan 13 23 359 nan nan nan nan nan nan 325 334 344 349 344 342 350 359 0 345 305 263 247 240 237 243 241 245 247 252 258 264 272 280 278 280 280 280 287 288 282 284 287 285 273 272 267 257 249 256 270 272 277 273 268 270 271 268 266 266 267 264 261 257 255 258 261 262 254 239 234 244 255 257 262 264 262 269 270 266
nan nan nan nan nan nan nan nan nan nan nan nan nan nan nan nan nan 5 14 12 5 348 nan 339 337 332 327 332 334 338 344 340 334 338 345 349 332 324 302 285 258 245 242 249 255 260 268 266 266 272 273 270 280 290 294 288 283 282 290 290 284 291 304 304 274 267 265 264 268 265 266 268 264 264 263 262 260 265 261 260 259 257 259 264 265 262 252 240 238 243 247 257 259 261 270 270 264
nan nan nan nan nan nan nan nan nan nan nan nan nan nan nan nan nan 10 7 6 8 356 346 338 331 330 335 340 337 338 341 343 339 330 321 328 329 332 317 286 287 282 278 274 275 269 266 268 277 287 284 290 296 302 302 293 290 290 290 293 295 295 295 285 264 258 255 255 260 259 255 254 263 267 267 260 261 262 263 262 258 259 256 258 263 261 260 250 243 238 242 246 249 259 267 266 265
nan nan nan nan nan nan nan nan nan nan nan nan nan nan nan nan nan nan nan 6 8 356 341 327 326 333 338 338 340 333 328 324 328 321 303 300 308 306 300 294 283 285 286 288 283 275 264 263 269 287 304 314 314 306 303 288 287 278 278 296 300 294 286 279 269 251 242 244 252 260 259 254 253 259 258 259 257 255 258 261 265 261 261 260 259 258 262 257 254 244 243 241 243 254 263 267 267
nan nan nan nan nan nan nan nan nan nan nan nan nan nan nan nan nan nan nan nan nan 342 344 344 333 333 332 336 340 341 339 337 333 328 318 302 288 287 299 300 296 289 274 263 268 265 275 275 278 280 281 281 282 291 294 291 284 276 272 276 281 279 278 267 255 258 256 247 257 260 258 254 254 251 252 252 248 244 243 250 258 262 261 259 258 257 261 262 259 255 249 246 243 251 254 261 261
nan nan nan nan nan nan nan nan nan nan nan nan nan nan nan nan nan nan nan nan nan 352 355 342 331 329 328 333 339 340 339 336 337 335 319 292 277 268 271 284 298 288 267 261 277 296 292 280 293 300 306 295 294 292 286 281 267 262 266 276 276 278 281 274 289 275 260 260 253 256 254 249 245 245 245 244 243 238 235 238 241 247 253 255 258 257 260 261 262 261 257 255 248 248 249 251 257
nan nan nan nan nan nan nan nan nan nan nan nan nan nan nan nan nan nan nan nan 344 355 348 342 329 328 326 330 336 335 336 341 338 329 301 279 269 266 265 269 275 280 273 280 286 288 295 309 309 306 300 298 298 288 287 280 279 278 269 247 252 262 271 265 274 272 257 247 244 247 250 248 244 239 244 239 235 231 230 231 234 236 238 243 250 257 261 263 263 260 258 256 256 257 257 256 262